Location: Koussan�
(15.2012°N, 12.5548°W)
Time: 18:18:40
(UTC+00:00)

Okean-O - Pass Details

Date: 20 October 2020
Orbit: 638 x 641 km, 98.2° (Epoch: 30 November)

Event Time Altitude Azimuth Distance (km) Brightness Sun altitude
Rises 19:10:45 0° 150° (SSE) 2,933 5.8 -11.3°
Reaches altitude 10° 19:13:06 10° 141° (SE) 2,025 4.9 -11.9°
Maximum altitude 19:17:07 35° 76° (ENE) 1,036 3.2 -12.9°
Drops below altitude 10° 19:21:07 10° 11° (N) 2,028 5.0 -13.8°
Sets 19:23:28 0° 2° (N) 2,937 5.9 -14.4°
